Location: Buckland
(65.9785°N, 161.1281°W)
Time: 20:34:48
(UTC+00:00)

SPROUT - Pass Details

Date: 25 January 2021
Orbit: 597 x 610 km, 97.9° (Epoch: 07 March)

Event Time Altitude Azimuth Distance (km) Brightness Sun altitude
Exits shadow 05:17:00 - 16° (NNE) 2,081 ? -19.3°
Reaches altitude 10° 05:18:13 10° 360° (N) 1,981 ? -19.4°
Maximum altitude 05:18:29 10° 356° (N) 1,978 ? -19.4°
Drops below altitude 10° 05:18:45 10° 353° (N) 1,981 ? -19.4°
Sets 05:23:20 0° 307° (NW) 2,888 ? -19.9°
